Home > Weather > Sochi > Past weeks

Flag for Russia Past Weather in Sochi, Russia — Yesterday and Last 2 Weeks

Now
75 °F

Passing clouds.


Feels Like: 76 °F
Forecast: 69 / 88 °F
Wind: 8 mph from Northeast

Location: Adler

Current Time: Aug 30, 2016 at 12:58:02 AM

Latest Report: Aug 30, 2016 at 12:00 AM


Visibility: N/A

Pressure: 29.86 "Hg

Humidity: 78%

Dew Point: 68 °F

Location of SochiLocation

Past Weather in Sochi — Graph

°F

Sochi Temperature Yesterday

Maximum temperature yesterday: 84 °F (at 10:30 AM)
Minimum temperature yesterday: 73 °F (at 1:00 AM)
Average temperature yesterday: 79 °F

High & Low Weather Summary for the Past Weeks

 TemperatureHumidityPressure
High88 °F (Aug 21, 6:00 PM)94% (Aug 17, 11:30 PM)30.07 "Hg (Aug 17, 11:30 PM)
Low63 °F (Aug 15, 4:00 AM)43% (Aug 22, 5:00 PM)29.77 "Hg (Aug 17, 2:30 PM)
Average78 °F74%29.88 "Hg
* Reported Aug 14 11:00 PM — Aug 29 11:30 PM, Sochi, Weather by CustomWeather, © 2016

Note: Actual official high and low records may vary slightly from our data, if they occured in-between our weather recording intervals... More about our weather records

Advertising

Sochi Weather History for the Previous 24 Hours

Scroll right to see more
 ConditionsComfort  
Time TempWeatherWind HumidityBarometerVisibility
11:30 PM
Mon, Aug 29
77 °FPassing clouds.8 mph74%29.86 "HgN/A
11:00 PM77 °FPassing clouds.6 mph83%29.86 "HgN/A
10:30 PM77 °FPassing clouds.6 mph89%29.86 "HgN/A
10:00 PM75 °FPassing clouds.3 mph94%29.86 "HgN/A
9:30 PM75 °FPassing clouds.3 mph94%29.86 "HgN/A
9:00 PM77 °FPassing clouds.3 mph89%29.86 "HgN/A
8:30 PM81 °FPassing clouds.1 mph79%29.86 "HgN/A
8:00 PM81 °FPassing clouds.3 mph84%29.86 "HgN/A
7:30 PM81 °FPassing clouds.6 mph84%29.83 "HgN/A
7:00 PM81 °FPassing clouds.6 mph79%29.83 "HgN/A
6:30 PM81 °FPassing clouds.6 mph79%29.83 "HgN/A
6:00 PM82 °FScattered clouds.6 mph74%29.83 "HgN/A
5:30 PM82 °FScattered clouds.8 mph79%29.83 "HgN/A
5:00 PM82 °FScattered clouds.8 mph79%29.86 "HgN/A
4:30 PM82 °FScattered clouds.10 mph79%29.86 "HgN/A
4:00 PM84 °FScattered clouds.8 mph74%29.86 "HgN/A
3:30 PM84 °FPassing clouds.8 mph70%29.86 "HgN/A
3:00 PM84 °FPassing clouds.8 mph70%29.86 "HgN/A
2:30 PM84 °FPassing clouds.8 mph70%29.86 "HgN/A
2:00 PM84 °FPassing clouds.8 mph70%29.86 "HgN/A
1:30 PM84 °FPassing clouds.8 mph70%29.86 "HgN/A
1:00 PM84 °FPassing clouds.8 mph70%29.89 "HgN/A
12:30 PM84 °FPassing clouds.8 mph70%29.89 "HgN/A
12:00 PM84 °FPassing clouds.6 mph70%29.89 "HgN/A
11:30 AM84 °FPassing clouds.6 mph70%29.89 "HgN/A
11:00 AM82 °FPassing clouds.3 mph70%29.89 "HgN/A
10:30 AM84 °FPassing clouds.No wind66%29.89 "HgN/A
10:00 AM82 °FPassing clouds.1 mph70%29.89 "HgN/A
9:30 AM81 °FPartly sunny.1 mph74%29.89 "HgN/A
9:00 AM81 °FPassing clouds.3 mph70%29.89 "HgN/A
8:36 AM79 °FScattered clouds.8 mph74%29.89 "HgN/A
8:00 AM79 °FScattered clouds.8 mph74%29.89 "HgN/A
7:30 AM77 °FScattered clouds.8 mph74%29.89 "HgN/A
7:00 AM75 °FPartly sunny.8 mph74%29.89 "HgN/A
6:30 AM75 °FPartly sunny.10 mph78%29.89 "HgN/A
6:00 AM73 °FBroken clouds.8 mph89%29.89 "HgN/A
5:30 AM75 °FOvercast.8 mph78%29.89 "HgN/A
5:00 AM73 °FOvercast.8 mph83%29.89 "HgN/A
4:30 AM73 °FOvercast.10 mph83%29.89 "HgN/A
4:00 AM73 °FOvercast.10 mph83%29.92 "HgN/A
3:30 AM75 °FOvercast.8 mph78%29.92 "HgN/A
3:00 AM73 °FPassing clouds.1 mph89%29.92 "HgN/A
2:30 AM73 °FPassing clouds.6 mph89%29.92 "HgN/A
2:00 AM73 °FOvercast.8 mph89%29.92 "HgN/A
1:30 AM73 °FOvercast.8 mph94%29.92 "HgN/A
1:00 AM73 °FThundershowers. Mostly cloudy.8 mph94%29.92 "Hg6 mi
12:30 AM75 °FSprinkles. Mostly cloudy.8 mph83%29.92 "HgN/A
12:00 AM77 °FPartly cloudy.8 mph79%29.92 "HgN/A
Weather by CustomWeather, © 2016

See weather overviewHow to use our weather pages